星链-36120(STARLINK-36120)

导读

STARLINK-36120是美国SpaceX公司星链(Starlink)星座的卫星,于2025年12月10日发射入轨。星链旨在构建全球卫星互联网,为全球偏远、欠发达地区提供低成本高速网络服务。STARLINK-36120服役于低地球轨道,依托星链星座激光通信技术,可支撑星间数据传输,扩展星座网络覆盖范围,服务全球宽带接入需求,推动卫星互联网基础设施建设。

基本信息
目录编号:
67016
目录名称:
STARLINK-36120
国际标识:
2025-293P
轨道中心:
EARTH
卫星名称:
星链-36120
卫星全名:
星链-36120(STARLINK-36120)
卫星状态:
在轨 (已飞行269 天)
发射日期:
2025-12-10 UTC
国别 :
美国 (US)
星等 :
--
轨道信息
数据来源 国际轨道数据
星历时间: 2026-09-05T18:48:30+0800
7小时前
查看轨道信息
半长轴: 6950.188km
偏心率: 0.0003077
轨道倾角: 70.003°
近地点辐角 269.624°
升交点赤经 1.237°
平近点角 90.457°
近地点: 569.912km
远地点: 574.19km
周期: 96.107分钟
每日圈数: 14.983317
详细信息
固有亮度:
5
最大亮度:
2.5
卫星平台:
Starlink V1.0
覆盖范围:
全球
运营商:
太空探索技术公司
运营商所在国:
美国
制造商(研发单位):
太空探索技术公司
制造商所在国:
美国
使用方式:
暂无
卫星简介
Starlink 计划是 SpaceX 推出的全球卫星互联网项目,通过发射低轨道卫星,为全球尤其是偏远地区提供高速、低延迟的互联网服务。自 2019 年起,Starlink 已部署数千颗卫星,旨在缩小全球数字鸿沟,推动互联网普及。该项目还为军事、航空等行业提供通信支持,带来广泛经济效益。
2D轨道图
3D轨道图
轨道高度分析图
轨道倾角分析图
轨道综合分析图
查看轨道综合分析图
交会数据列表
事件ID 空间交会对象 最接近时刻(TCA) 交会距离 交会风险概率(CRP) 交会风险指数(CRI) 操作
CDM_260908-050103-679706-701621
AISSAT 1 (36797)
2026-09-08T
05:01:20+0000
0.362 km
远距离
3.849807E-4 高风险 0.87
CDM_260905-215003-942806-701624
2026-09-05T
21:50:05+0000
0.763 km
远距离
6.672274E-5 中风险 0.71
CDM_260907-165602-950606-701622
2026-09-07T
16:56:13+0000
2.260 km
极远距离
1.660552E-6 低风险 0.39